MOLNIYA 1-36

Last updated on Nov. 15, 2019, 4:21 a.m. UTC

1 09880U 77021A   19317.38090724  .00001223  00000-0  15363-3 0  9995
2 09880  62.2285  58.0724 7472458 281.5452  10.3474  2.00863648210405
UTC
Height (km)
Latitude
Longitude
Inclination
Orbital Period
UTC large
Height (km)
Speed (km/s)
/
Latitude / Longitude
Inclination (degrees)
Orbital Period (minutes)
Azimuth
Elevation
Range (km)
Doppler Factor
iOS Compass Heading
iOS Angle

Next 30 passes for location: Hong Kong

Rise time Rise Azimuth (degrees) Set time Set Azimuth (degrees) Duration Max altitude (degrees)

No matching passes for this satellites